| time (UTC) | temp C | wind direction | speed KPH | gust KPH | rain 1hr cm | rain 24hr cm | rain mn cm | humidity % | barometer mb |
| 20260904213027 | 21 | 290 | 6.4 | 14.5 | 0.00 | 0.00 | 0.00 | 20 | 1012.0 |
| 20260904211525 | 22 | 298 | 6.4 | 12.9 | 0.00 | 0.00 | 0.00 | 19 | 1011.9 |
| 20260904210027 | 23 | 235 | 3.2 | 11.3 | 0.00 | 0.00 | 0.00 | 18 | 1011.7 |
| 20260904204530 | 24 | 241 | 1.6 | 6.4 | 0.00 | 0.00 | 0.00 | 18 | 1011.5 |
| 20260904203125 | 24 | 248 | 3.2 | 20.9 | 0.00 | 0.00 | 0.00 | 17 | 1011.4 |
| 20260904201523 | 24 | 231 | 4.8 | 11.3 | 0.00 | 0.00 | 0.00 | 17 | 1011.4 |
| 20260904200028 | 24 | 226 | 4.8 | 16.1 | 0.00 | 0.00 | 0.00 | 17 | 1011.4 |
| 20260904194525 | 24 | 228 | 6.4 | 14.5 | 0.00 | 0.00 | 0.00 | 17 | 1011.4 |
| 20260904193024 | 25 | 256 | 4.8 | 11.3 | 0.00 | 0.00 | 0.00 | 17 | 1011.5 |
| 20260904191524 | 25 | 244 | 6.4 | 14.5 | 0.00 | 0.00 | 0.00 | 17 | 1011.6 |
| 20260904190020 | 25 | 231 | 4.8 | 11.3 | 0.00 | 0.00 | 0.00 | 18 | 1011.7 |
| 20260904184519 | 25 | 214 | 6.4 | 16.1 | 0.00 | 0.00 | 0.00 | 17 | 1011.7 |
| 20260904183016 | 25 | 269 | 4.8 | 16.1 | 0.00 | 0.00 | 0.00 | 20 | 1011.7 |
| 20260904181515 | 25 | 259 | 6.4 | 14.5 | 0.00 | 0.00 | 0.00 | 18 | 1011.7 |
| 20260904180014 | 25 | 220 | 6.4 | 14.5 | 0.00 | 0.00 | 0.00 | 17 | 1012.1 |
| 20260904174523 | 25 | 234 | 6.4 | 16.1 | 0.00 | 0.00 | 0.00 | 18 | 1012.4 |
| 20260904173010 | 24 | 244 | 6.4 | 16.1 | 0.00 | 0.00 | 0.00 | 18 | 1012.4 |
| 20260904171511 | 24 | 214 | 6.4 | 16.1 | 0.00 | 0.00 | 0.00 | 20 | 1012.8 |
| 20260904170004 | 24 | 238 | 4.8 | 14.5 | 0.00 | 0.00 | 0.00 | 19 | 1012.8 |
| 20260904164502 | 25 | 195 | 3.2 | 9.7 | 0.00 | 0.00 | 0.00 | 21 | 1012.8 |
| 20260904163058 | 25 | 213 | 3.2 | 9.7 | 0.00 | 0.00 | 0.00 | 20 | 1013.0 |
| 20260904161554 | 25 | 313 | 0.0 | 3.2 | 0.00 | 0.00 | 0.00 | 18 | 1013.3 |
| 20260904160050 | 24 | 180 | 0.0 | 3.2 | 0.00 | 0.00 | 0.00 | 22 | 1013.6 |
| 20260904154547 | 23 | 82 | 0.0 | 3.2 | 0.00 | 0.00 | 0.00 | 20 | 1014.0 |
| 20260904153049 | 23 | 153 | 1.6 | 4.8 | 0.00 | 0.00 | 0.00 | 21 | 1014.2 |
| 20260904151540 | 22 | 90 | 3.2 | 11.3 | 0.00 | 0.00 | 0.00 | 22 | 1014.6 |
| 20260904150040 | 21 | 105 | 3.2 | 9.7 | 0.00 | 0.00 | 0.00 | 24 | 1014.8 |
| 20260904144529 | 21 | 102 | 4.8 | 11.3 | 0.00 | 0.00 | 0.00 | 26 | 1015.0 |
| 20260904143032 | 20 | 108 | 0.0 | 8.0 | 0.00 | 0.00 | 0.00 | 28 | 1015.3 |
| 20260904141527 | 19 | 101 | 3.2 | 8.0 | 0.00 | 0.00 | 0.00 | 29 | 1015.5 |
| 20260904140020 | 18 | 106 | 1.6 | 4.8 | 0.00 | 0.00 | 0.00 | 31 | 1015.6 |